Newberry, MI

10:34 AM EST on February 07, 2016 (GMT -0500)
Luce County

Weather History for KERY - July, 2013

Change the Weather History Date:

Saturday, July 27, 2013

  Actual Average Record
Temperature  
Mean Temperature 54 °F -  
Max Temperature 60 °F 75 °F 92 °F (1941)
Min Temperature 48 °F 51 °F 38 °F (1971)
Degree Days  
Heating Degree Days 11    
Growing Degree Days 4 (Base 50)    
Moisture  
Dew Point 50 °F    
Average Humidity 92    
Maximum Humidity 100    
Minimum Humidity 77    
Precipitation  
Precipitation 0.00 in - - ()
Sea Level Pressure  
Sea Level Pressure 29.85 in    
Wind  
Wind Speed 5 mph (NW)    
Max Wind Speed 12 mph    
Max Gust Speed -    
Visibility 9 miles    
Events      
Averages and records for this station are not official NWS values.
T = Trace of Precipitation, MM = Missing Value Source: NWS Daily Summary

Daily Weather History Graph

Daily Weather History Graph

Search for Another Location

Airport or City:

Trip Planner

Search our weather history database for the weather conditions in past years. The results will help you decide how hot, cold, wet, or windy it might be!

Date:

Astronomy

Jul. 27, 2013 Rise Set
Actual Time 6:17 AM EDT 9:18 PM EDT
Civil Twilight 5:42 AM EDT 9:53 PM EDT
Nautical Twilight 4:56 AM EDT 10:39 PM EDT
Astronomical Twilight 4:01 AM EDT 11:33 PM EDT
Moon 11:40 PM EDT (7/27) 12:21 PM EDT (7/27)
Length of Visible Light 16h 11m
Length of Day
15h 00m
Waning Gibbous, 71% of the Moon is Illuminated
Jul 27
Waning Gibbous
Jul 29
Last Quarter
Aug 6
New
Aug 14
First Quarter
Aug 20
Full

Hourly Weather History & Observations

Time (EDT) Temp. Dew Point Humidity Pressure Visibility Wind Dir Wind Speed Gust Speed Precip Events Conditions
12:14 AM 53.6 °F 51.8 °F 94% 29.88 in 7.0 mi West 9.2 mph - N/A   Overcast
12:35 AM 51.8 °F 51.8 °F 100% 29.88 in 7.0 mi WNW 5.8 mph - N/A   Overcast
12:54 AM 51.8 °F 50.0 °F 94% 29.88 in 2.5 mi WNW 6.9 mph - N/A   Overcast
1:15 AM 51.8 °F 48.2 °F 88% 29.88 in 3.0 mi West 8.1 mph - N/A   Overcast
1:35 AM 50.0 °F 48.2 °F 94% 29.87 in 7.0 mi WNW 6.9 mph - N/A   Overcast
1:54 AM 50.0 °F 48.2 °F 94% 29.87 in 7.0 mi WNW 11.5 mph - N/A   Overcast
2:15 AM 48.2 °F 48.2 °F 100% 29.88 in 5.0 mi West 6.9 mph - N/A   Overcast
2:35 AM 50.0 °F 48.2 °F 94% 29.88 in 3.0 mi WNW 6.9 mph - N/A   Overcast
2:54 AM 50.0 °F 48.2 °F 94% 29.88 in 2.0 mi WNW 5.8 mph - N/A   Overcast
3:15 AM 48.2 °F 48.2 °F 100% 29.88 in 2.5 mi WNW 6.9 mph - N/A   Overcast
3:34 AM 48.2 °F 48.2 °F 100% 29.88 in 4.0 mi WNW 4.6 mph - N/A   Overcast
3:54 AM 48.2 °F 48.2 °F 100% 29.88 in 10.0 mi WNW 5.8 mph - N/A   Overcast
4:15 AM 48.2 °F 48.2 °F 100% 29.88 in 10.0 mi WNW 5.8 mph - N/A   Overcast
4:34 AM 48.2 °F 48.2 °F 100% 29.87 in 10.0 mi Calm Calm - N/A   Overcast
4:55 AM 48.2 °F 46.4 °F 93% 29.86 in 10.0 mi NNW 4.6 mph - N/A   Overcast
5:14 AM 48.2 °F 46.4 °F 93% 29.87 in 10.0 mi Calm Calm - N/A   Overcast
5:34 AM 48.2 °F 48.2 °F 100% 29.87 in 10.0 mi Calm Calm - N/A   Overcast
5:55 AM 48.2 °F 48.2 °F 100% 29.87 in 10.0 mi West 3.5 mph - N/A   Overcast
6:14 AM 48.2 °F 48.2 °F 100% 29.87 in 10.0 mi Calm Calm - N/A   Overcast
6:35 AM 48.2 °F 48.2 °F 100% 29.88 in 10.0 mi Calm Calm - N/A   Overcast
6:55 AM 48.2 °F 48.2 °F 100% 29.88 in 5.0 mi Calm Calm - N/A   Overcast
7:14 AM 48.2 °F 48.2 °F 100% 29.88 in 10.0 mi Calm Calm - N/A   Overcast
7:35 AM 48.2 °F 48.2 °F 100% 29.88 in 10.0 mi WNW 3.5 mph - N/A   Overcast
7:55 AM 50.0 °F 48.2 °F 94% 29.87 in 10.0 mi WNW 3.5 mph - N/A   Overcast
8:14 AM 48.2 °F 48.2 °F 100% 29.88 in 10.0 mi Calm Calm - N/A   Overcast
8:35 AM 50.0 °F 48.2 °F 94% 29.88 in 10.0 mi WNW 3.5 mph - N/A   Overcast
8:55 AM 50.0 °F 48.2 °F 94% 29.87 in 10.0 mi WNW 3.5 mph - N/A   Overcast
9:14 AM 50.0 °F 48.2 °F 94% 29.88 in 10.0 mi Calm Calm - N/A   Overcast
9:35 AM 51.8 °F 50.0 °F 94% 29.87 in 10.0 mi North 3.5 mph - N/A   Overcast
9:54 AM 51.8 °F 50.0 °F 94% 29.87 in 10.0 mi Calm Calm - N/A   Overcast
10:14 AM 51.8 °F 48.2 °F 88% 29.87 in 10.0 mi Calm Calm - N/A   Overcast
10:35 AM 51.8 °F 50.0 °F 94% 29.87 in 10.0 mi Calm Calm - N/A   Overcast
10:54 AM 53.6 °F 51.8 °F 94% 29.87 in 10.0 mi WNW 3.5 mph - N/A   Overcast
11:15 AM 51.8 °F 50.0 °F 94% 29.87 in 10.0 mi Calm Calm - N/A   Overcast
11:35 AM 53.6 °F 51.8 °F 94% 29.87 in 10.0 mi Calm Calm - N/A   Overcast
11:54 AM 53.6 °F 51.8 °F 94% 29.87 in 10.0 mi West 3.5 mph - N/A   Overcast
12:15 PM 53.6 °F 51.8 °F 94% 29.86 in 10.0 mi West 3.5 mph - N/A   Overcast
12:35 PM 53.6 °F 51.8 °F 94% 29.86 in 10.0 mi Calm Calm - N/A   Overcast
12:55 PM 53.6 °F 51.8 °F 94% 29.86 in 10.0 mi North 4.6 mph - N/A   Overcast
1:15 PM 53.6 °F 51.8 °F 94% 29.86 in 10.0 mi NNW 3.5 mph - N/A   Overcast
1:34 PM 53.6 °F 51.8 °F 94% 29.86 in 10.0 mi Calm Calm - N/A   Overcast
1:55 PM 55.4 °F 51.8 °F 88% 29.86 in 10.0 mi Calm Calm - N/A   Overcast
2:15 PM 55.4 °F 53.6 °F 94% 29.86 in 10.0 mi North 4.6 mph - N/A   Overcast
2:34 PM 55.4 °F 53.6 °F 94% 29.86 in 10.0 mi North 3.5 mph - N/A   Overcast
2:55 PM 55.4 °F 53.6 °F 94% 29.86 in 10.0 mi Calm Calm - N/A   Overcast
3:14 PM 55.4 °F 53.6 °F 94% 29.86 in 10.0 mi North 4.6 mph - N/A   Overcast
3:34 PM 57.2 °F 53.6 °F 88% 29.85 in 10.0 mi NNE 6.9 mph - N/A   Overcast
3:54 PM 59.0 °F 53.6 °F 82% 29.84 in 10.0 mi NNE 4.6 mph - N/A   Mostly Cloudy
4:14 PM 59.0 °F 53.6 °F 82% 29.83 in 10.0 mi NNE 3.5 mph - N/A   Mostly Cloudy
4:34 PM 59.0 °F 55.4 °F 88% 29.84 in 10.0 mi Calm Calm - N/A   Overcast
4:54 PM 60.8 °F 55.4 °F 82% 29.83 in 10.0 mi North 3.5 mph - N/A   Overcast
5:15 PM 60.8 °F 55.4 °F 82% 29.83 in 10.0 mi NNE 8.1 mph - N/A   Overcast
5:34 PM 60.8 °F 55.4 °F 82% 29.83 in 10.0 mi NW 5.8 mph - N/A   Mostly Cloudy
5:54 PM 60.8 °F 53.6 °F 77% 29.83 in 10.0 mi NNE 8.1 mph - N/A   Overcast
6:15 PM 60.8 °F 53.6 °F 77% 29.83 in 10.0 mi NNE 4.6 mph - N/A   Overcast
6:34 PM 60.8 °F 53.6 °F 77% 29.83 in 10.0 mi North 5.8 mph - N/A   Overcast
6:55 PM 59.0 °F 53.6 °F 82% 29.82 in 10.0 mi NNE 8.1 mph - N/A   Overcast
7:15 PM 59.0 °F 53.6 °F 82% 29.82 in 10.0 mi North 8.1 mph - N/A   Overcast
7:34 PM 57.2 °F 53.6 °F 88% 29.83 in 10.0 mi North 9.2 mph - N/A   Overcast
7:55 PM 57.2 °F 51.8 °F 82% 29.82 in 10.0 mi NNW 4.6 mph - N/A   Overcast
8:15 PM 55.4 °F 51.8 °F 88% 29.83 in 10.0 mi NW 4.6 mph - N/A   Mostly Cloudy
8:34 PM 55.4 °F 51.8 °F 88% 29.83 in 10.0 mi NW 5.8 mph - N/A   Overcast
8:55 PM 53.6 °F 50.0 °F 88% 29.82 in 10.0 mi NNW 6.9 mph - N/A   Mostly Cloudy
9:14 PM 53.6 °F 50.0 °F 88% 29.82 in 10.0 mi NW 3.5 mph - N/A   Scattered Clouds
9:34 PM 53.6 °F 48.2 °F 82% 29.82 in 10.0 mi NNW 4.6 mph - N/A   Scattered Clouds
9:55 PM 51.8 °F 48.2 °F 88% 29.81 in 10.0 mi NW 6.9 mph - N/A   Scattered Clouds
10:14 PM 51.8 °F 48.2 °F 88% 29.82 in 10.0 mi WNW 3.5 mph - N/A   Clear
10:35 PM 51.8 °F 48.2 °F 88% 29.81 in 10.0 mi NNW 4.6 mph - N/A   Clear
10:55 PM 51.8 °F 48.2 °F 88% 29.82 in 10.0 mi NW 3.5 mph - N/A   Scattered Clouds
11:14 PM 51.8 °F 48.2 °F 88% 29.82 in 10.0 mi WNW 4.6 mph - N/A   Scattered Clouds
11:35 PM 50.0 °F 48.2 °F 94% 29.81 in 10.0 mi NW 5.8 mph - N/A   Mostly Cloudy
11:55 PM 50.0 °F 48.2 °F 94% 29.80 in 10.0 mi WNW 5.8 mph - N/A   Scattered Clouds